Location: Morisset
(33.1080°S, 151.4871°E)
Time: 08:39:49
(UTC+00:00)

IKONOS-2 - Pass Details

Date: 29 October 2020
Orbit: 600 x 611 km, 98.2° (Epoch: 27 November)

Event Time Altitude Azimuth Distance (km) Brightness Sun altitude
Rises 17:01:33 0° 171° (S) 2,909 8.7 -22.5°
Reaches altitude 10° 17:03:46 10° 173° (S) 1,995 7.7 -22.1°
Maximum altitude 17:08:05 69° 256° (WSW) 662 4.5 -21.4°
Enters shadow 17:08:39 60° 303° (WNW) 706 4.5 -21.3°
